St. Cloud, MN

6:07 AM CDT on June 21, 2018 (GMT -0500)
Saint Cloud Regional

Weather History for KSTC - October, 2017

Change the Weather History Date:

Wednesday, October 11, 2017

  Actual Average Record
Temperature  
Mean Temperature 43 °F 48 °F  
Max Temperature 58 °F 59 °F 83 °F (2015)
Min Temperature 27 °F 37 °F 16 °F (1987)
Degree Days  
Heating Degree Days 22 17  
Month to date heating degree days 160 169  
Since 1 July heating degree days 339 455  
Cooling Degree Days 0 0  
Month to date cooling degree days 0 0  
Year to date cooling degree days 361 463  
Moisture  
Dew Point 38 °F    
Average Humidity 70    
Maximum Humidity 100    
Minimum Humidity 40    
Precipitation  
Precipitation 0.00 in 0.08 in 1.01 in (1973)
Month to date precipitation 3.63 1.03  
Year to date precipitation 27.49 24.07  
Snow  
Snow 0.00 in 0.00 in T in (2006)
Month to date snowfall 0.0 0.1  
Since 1 July snowfall 0.0 0.1  
Since 1 September snowfall 0.0 0.1  
Snow Depth 0.00 in    
Sea Level Pressure  
Sea Level Pressure 30.21 in    
Wind  
Wind Speed 7 mph (SE)    
Max Wind Speed 16 mph    
Max Gust Speed 21 mph    
Visibility 10 miles    
Events      
T = Trace of Precipitation, MM = Missing Value Source: NWS Daily Summary

Daily Weather History Graph

Daily Weather History Graph

Search for Another Location

Airport or City:

Astronomy

Oct. 11, 2017 Rise Set
Actual Time 7:27 AM CDT 6:37 PM CDT
Civil Twilight 6:57 AM CDT 7:06 PM CDT
Nautical Twilight 6:23 AM CDT 7:41 PM CDT
Astronomical Twilight 5:49 AM CDT 8:15 PM CDT
Moon 11:30 PM CDT (10/11) 1:55 PM CDT (10/11)
Length of Visible Light 12h 09m
Length of Day
11h 09m
Waning Gibbous, 59% of the Moon is Illuminated
Oct 11
Waning Gibbous
Oct 12
Last Quarter
Oct 19
New
Oct 27
First Quarter
Nov 4
Full

Hourly Weather History & Observations

Time (CDT) Temp. Windchill Dew Point Humidity Pressure Visibility Wind Dir Wind Speed Gust Speed Precip Events Conditions
12:53 AM 30.0 °F - 28.9 °F 96% 30.30 in 10.0 mi Calm Calm - N/A   Clear
1:53 AM 28.9 °F 25.2 °F 28.9 °F 100% 30.29 in 10.0 mi North 3.5 mph - N/A   Clear
2:53 AM 28.9 °F - 28.0 °F 96% 30.28 in 10.0 mi Calm Calm - N/A   Clear
3:53 AM 28.9 °F - 28.0 °F 96% 30.28 in 10.0 mi Calm Calm - N/A   Clear
4:53 AM 28.9 °F - 28.0 °F 96% 30.28 in 10.0 mi Calm Calm - N/A   Clear
5:53 AM 27.0 °F - 27.0 °F 100% 30.28 in 10.0 mi Calm Calm - N/A   Clear
6:53 AM 28.0 °F - 27.0 °F 96% 30.29 in 10.0 mi Calm Calm - N/A   Clear
6:59 AM 28.0 °F - 27.0 °F 96% 30.23 in 10.0 mi Calm Calm - N/A   Clear
7:42 AM 28.0 °F - 27.0 °F 96% 30.22 in 10.0 mi Calm Calm - N/A   Clear
7:53 AM 28.0 °F - 27.0 °F 96% 30.29 in 10.0 mi Calm Calm - N/A   Clear
8:53 AM 37.0 °F 33.3 °F 34.0 °F 89% 30.29 in 10.0 mi East 4.6 mph - N/A   Clear
9:53 AM 43.0 °F 39.5 °F 36.0 °F 76% 30.29 in 10.0 mi ESE 5.8 mph - N/A   Clear
10:53 AM 48.9 °F - 37.9 °F 66% 30.28 in 10.0 mi ESE 6.9 mph - N/A   Clear
11:53 AM 53.1 °F - 37.9 °F 57% 30.26 in 10.0 mi ESE 5.8 mph - N/A   Clear
12:53 PM 57.0 °F - 37.0 °F 47% 30.24 in 10.0 mi SE 10.4 mph - N/A   Clear
1:53 PM 57.0 °F - 33.1 °F 40% 30.21 in 10.0 mi ESE 11.5 mph - N/A   Scattered Clouds
2:53 PM 57.0 °F - 39.0 °F 51% 30.20 in 10.0 mi SE 12.7 mph - N/A   Overcast
3:53 PM 55.9 °F - 43.0 °F 62% 30.19 in 10.0 mi SE 12.7 mph - N/A   Overcast
4:53 PM 55.0 °F - 45.0 °F 69% 30.17 in 10.0 mi ESE 9.2 mph 19.6 mph N/A   Overcast
5:53 PM 54.0 °F - 46.0 °F 75% 30.17 in 10.0 mi SE 10.4 mph - N/A   Overcast
6:53 PM 53.1 °F - 46.0 °F 77% 30.17 in 10.0 mi SE 10.4 mph - N/A   Overcast
7:53 PM 52.0 °F - 46.9 °F 83% 30.17 in 10.0 mi SE 9.2 mph - N/A   Overcast
8:31 PM 51.1 °F - 46.0 °F 83% 30.12 in 10.0 mi SE 6.9 mph - N/A   Overcast
8:53 PM 51.1 °F - 46.0 °F 83% 30.16 in 10.0 mi SE 10.4 mph - N/A   Overcast
9:53 PM 50.0 °F - 46.0 °F 86% 30.14 in 10.0 mi SE 15.0 mph 20.7 mph N/A   Overcast
10:08 PM 50.0 °F - 46.0 °F 86% 30.10 in 10.0 mi SE 11.5 mph - N/A   Overcast
10:16 PM 50.0 °F - 46.0 °F 86% 30.10 in 10.0 mi SE 11.5 mph - N/A   Overcast
10:27 PM 48.9 °F - 46.0 °F 90% 30.10 in 10.0 mi SE 13.8 mph - N/A   Mostly Cloudy
10:53 PM 48.9 °F - 46.0 °F 90% 30.14 in 10.0 mi SE 13.8 mph - N/A   Clear
11:30 PM 48.9 °F - 46.0 °F 90% 30.11 in 10.0 mi SSE 10.4 mph - N/A   Mostly Cloudy
11:53 PM 48.9 °F - 46.9 °F 93% 30.15 in 10.0 mi SSE 13.8 mph - N/A   Overcast